Location: Erdweis
(48.5167°N, 15.3500°E)
Time: 11:01:14
(UTC+00:00)

X-37B - Pass Details

Date: 04 December 2020
Orbit: 384 x 390 km, 45.0° (Epoch: 02 January)

Event Time Altitude Azimuth Distance (km) Brightness Sun altitude
Rises 17:42:19 0° 269° (W) 2,266 5.8 -25.2°
Reaches altitude 10° 17:44:29 10° 260° (W) 1,412 4.4 -25.6°
Enters shadow 17:45:59 23° 242° (WSW) 890 3.0 -25.8°
